This is the latest recevied weather packets stored in our database for station/object STV2-WX. If no packets are shown the sender has not sent any weather packets the latest 10 day(s).
| Time | Temp. | Humidity | Pressure | Rain* | Wind** | Luminosity | Snow |
|---|---|---|---|---|---|---|---|
| 1787973429 | 15.56° C | 66% | 1016.4 hPa | - | - | - | - |
| 1787969828 | 16.11° C | 63% | 1016.1 hPa | - | - | - | - |
| 1787966229 | 16.67° C | 60% | 1016.3 hPa | - | - | - | - |
| 1787962629 | 17.22° C | 57% | 1015.8 hPa | - | - | - | - |
| 1787959029 | 17.78° C | 50% | 1015.6 hPa | - | - | - | - |
| 1787955429 | 18.33° C | 49% | 1015.6 hPa | - | - | - | - |
| 1787951829 | 18.33° C | 50% | 1015.1 hPa | - | - | - | - |
| 1787948229 | 18.89° C | 49% | 1015.7 hPa | - | - | - | - |
| 1787944629 | 19.44° C | 49% | 1015.9 hPa | - | - | - | - |
| 1787941032 | 20° C | 45% | 1015.9 hPa | - | - | - | - |
| 1787937430 | 18.33° C | 57% | 1015.9 hPa | - | - | - | - |
| 1787933829 | 17.78° C | 68% | 1015.9 hPa | - | - | - | - |
| 1787930229 | 18.33° C | 64% | 1015.4 hPa | - | - | - | - |
| 1787926629 | 19.44° C | 55% | 1015.3 hPa | - | - | - | - |
| 1787923029 | 20.56° C | 54% | 1014.8 hPa | - | - | - | - |
| 1787919429 | 19.44° C | 61% | 1015.3 hPa | - | - | - | - |
| 1787915835 | 20° C | 57% | 1014.8 hPa | - | - | - | - |
| 1787912229 | 20.56° C | 58% | 1014.8 hPa | - | - | - | - |
| 1787908629 | 22.78° C | 46% | 1013.5 hPa | - | - | - | - |
| 1787905029 | 21.67° C | 51% | 1014.2 hPa | - | - | - | - |
| 1787901429 | 20° C | 54% | 1014.7 hPa | - | - | - | - |
| 1787897828 | 18.89° C | 60% | 1015.3 hPa | - | - | - | - |
| 1787894229 | 17.78° C | 61% | 1014.9 hPa | - | - | - | - |
| 1787890632 | 17.22° C | 63% | 1014.7 hPa | - | - | - | - |
| 1787887029 | 16.67° C | 65% | 1014.4 hPa | - | - | - | - |
* Rain since midnight (hover to see other rain measurements)
** Current wind speed in m/s (hover to see current wind gust speed)